Погода в Отынии

Украина / Ивано-Франковская область     48°44′00″N   24°51′23″E
темп.,
°C
ветер,
м/с
пор.,
м/с
влажн.,
%
обл.,
%
осадки,
мм/ч
давл.,
гПа
погр.,
м
17 июня, чт
чт1700:00+14зсз22946 2.0 101922
03:00+14зсз229411 2.0 101927
06:00+13сз22957 0.0 101938
09:00+18ссз23856 0.0 1020380
12:00+21ссв3370100 0.4 1021950
15:00+21св3474100 1.6 1020963
18:00+22ссв136997 0.6 1020989
21:00+18в2283100 1.3 102011
18 июня, пт
пт1800:00+16ююз11915 0.1 102111
03:00+15зюз11930 0.1 102110
06:00+14з119517 0.0 102111
09:00+18ссв118736 0.0 1021340
12:00+22св337658 0.1 1020932
15:00+22в468227 1.0 1019705
18:00+21в378999 1.4 1019402
21:00+18вюв25953 4.4 1019107
19 июня, сб
сб1900:00+16юв22972 0.1 102016
03:00+15юв22978 0.1 101919
06:00+14юв1196100 0.0 102011
09:00+18вюв2489100 0.0 1020479
12:00+20вюв3483100 1.4 1019721
15:00+21в348389 4.4 1018947
18:00+20в348596 1.8 1017801
21:00+18вюв11935 2.8 101711
20 июня, вс
вс2000:00+15ююв11955 0.1 101711
03:00+14юв11964 0.1 101711
06:00+14ююв22965 0.0 101723
09:00+18юв35851 0.0 1017371
12:00+23вюв346899 0.0 1016858
15:00+24в336398 0.0 10141119
18:00+22в458199 0.1 1014464
21:00+18юв4894100 2.9 1014236
21 июня, пн
пн2100:00+17юв2294100 0.0 101418
03:00+15вюв23975 0.0 101348
06:00+15ююв11979 0.0 101321
09:00+19вюв348945 0.0 1012463
12:00+23вюв447012 0.0 10111012
15:00+25вюв44652 0.0 10101057
18:00+24вюв44747 0.4 1010890
21:00+20вюв369216 3.6 1010107